This demonstration page uses our WeatherBlox Daily Observations layout. Learn more.

Left ArrowRight Arrow

Hourly Observations for March 25, 2020

Temp ( °F °C ) Dew Point ( °F °C ) Humidity (%) Winds ( mph kmh ) Pressure ( in mb ) Visibility ( mi km ) Precip ( " mm )
12:53 am 00:53 Cloudy 44 6.7 40 4.4 85 85 NE 3 6 29.89 1012 8 12.87472 0.01 0.254
1:53 am 01:53 Cloudy 44 6.7 40 4.4 85 85 NNW 6 9 29.91 1013 7 11.26538 N/A
2:53 am 02:53 Clear with Mist and Fog 42 5.6 39 3.9 89 89 N 5 7 29.9 1013 6 9.65604 N/A
3:53 am 03:53 Cloudy with Mist and Fog 42 5.6 39 3.9 89 89 NNW 5 7 29.9 1013 6 9.65604 N/A
4:53 am 04:53 Cloudy with Mist and Fog 42 5.6 39 3.9 89 89 NW 5 7 29.91 1013 6 9.65604 N/A
5:53 am 05:53 Cloudy with Mist and Fog 41 5 38 3.3 89 89 NW 3 6 29.92 1013 6 9.65604 N/A
6:53 am 06:53 Clear with Mist and Fog 39 3.9 36 2.2 89 89 NW 7 11 29.96 1015 5 8.0467 N/A
7:53 am 07:53 Sunny with Mist and Fog 37 2.8 35 1.7 93 93 N N/A 29.98 1015 4 6.43736 N/A
8:53 am 08:53 Sunny with Mist and Fog 40 4.4 36 2.2 86 86 NW 3 6 30.01 1016 5 8.0467 N/A
9:53 am 09:53 Hazy 42 5.6 37 2.8 82 82 NNW 6 9 30.02 1017 5 8.0467 N/A
10:53 am 10:53 Sunny 45 7.2 39 3.9 80 80 WNW 5 7 30.01 1016 7 11.26538 N/A
11:53 am 11:53 Sunny 49 9.4 41 5 74 74 N N/A 30.01 1016 9 14.48406 N/A
12:53 pm 12:53 Sunny 55 12.8 42 5.6 62 62 W 6 9 30.01 1016 10 16.0934 N/A
1:53 pm 13:53 Sunny 58 14.4 39 3.9 50 50 N N/A 30 1016 10 16.0934 N/A
2:53 pm 14:53 Sunny 61 16.1 39 3.9 44 44 undefined N/A 29.99 1016 10 16.0934 N/A
3:53 pm 15:53 Sunny 63 17.2 40 4.4 43 43 VRB 3 6 29.97 1015 10 16.0934 N/A
4:53 pm 16:53 Sunny 64 17.8 39 3.9 40 40 NW 6 9 29.95 1014 10 16.0934 N/A
5:53 pm 17:53 Sunny 65 18.3 39 3.9 39 39 W 7 11 29.94 1014 10 16.0934 N/A
6:53 pm 18:53 Sunny 65 18.3 36 2.2 34 34 N N/A 29.93 1014 10 16.0934 N/A
7:53 pm 19:53 Sunny 59 15 38 3.3 46 46 N N/A 29.95 1014 10 16.0934 N/A
8:53 pm 20:53 Clear 50 10 41 5 71 71 N N/A 29.97 1015 10 16.0934 N/A
9:53 pm 21:53 Clear 48 8.9 41 5 77 77 N N/A 29.97 1015 10 16.0934 N/A
10:53 pm 22:53 Clear 46 7.8 42 5.6 86 86 N N/A 29.97 1015 10 16.0934 N/A
11:53 pm 23:53 Clear 48 8.9 40 4.4 74 74 E 3 6 29.97 1015 10 16.0934 N/A

Powered by AerisWeather